Wind from 306 at 0 knots gusting 11

Air temperature 16.7° C
Dewpoint 15.9° C

Last reported at 2014-Apr-19 23:48 UTC.
Time now 2014-Apr-20 00:45 UTC

Location: S 36°52' E 174°44'.
View on Google Maps.

See reports from other nearby stations

Tides Stations Pressure Air Temp Water Temp Dewpoint Dewpoint depression Visibility Wind Speed Wind Dir Waves Ship positions

  
sailing weather and tide predictions

CW4778 Auckland NZ weather

date/time (UTC)wind fromknots sea level pressurealtimeterstation pressurevisibilityair tempwater tempwave heightnotes
2014-Apr-19 23:48 306 0 gusting 11 16.7
2014-Apr-19 23:38 298 3 gusting 13 16.7
2014-Apr-19 23:28 292 5 gusting 12 17.2
2014-Apr-19 23:18 343 4 gusting 11 17.2
2014-Apr-19 23:08 007 6 gusting 13 17.8
2014-Apr-19 22:58 339 6 gusting 14 18.3
2014-Apr-19 22:48 287 6 gusting 13 18.9
2014-Apr-19 22:38 321 6 gusting 13 19.4
2014-Apr-19 22:28 329 4 gusting 10 20.0
2014-Apr-19 22:18 325 7 gusting 13 19.4
2014-Apr-19 22:08 296 5 gusting 13 20.6
2014-Apr-19 21:58 338 6 gusting 13 20.6
2014-Apr-19 21:48 325 6 gusting 15 20.0
2014-Apr-19 21:38 345 7 gusting 11 19.4
2014-Apr-19 21:28 350 4 gusting 8 18.3
2014-Apr-19 21:18 320 6 gusting 12 18.3
2014-Apr-19 21:08 339 6 gusting 11 18.9
2014-Apr-19 20:58 346 2 gusting 11 18.9
2014-Apr-19 20:48 321 4 gusting 8 18.3
2014-Apr-19 20:38 298 4 gusting 8 17.8
2014-Apr-19 20:28 276 3 gusting 6 17.8
2014-Apr-19 20:18 323 4 gusting 8 17.2
2014-Apr-19 20:08 316 5 gusting 8 16.7
2014-Apr-19 19:58 334 4 gusting 10 16.1
2014-Apr-19 19:48 328 3 gusting 7 15.6
2014-Apr-19 19:38 343 2 gusting 8 15.6
2014-Apr-19 19:28 329 1 gusting 8 15.0
2014-Apr-19 19:18 316 4 gusting 6 15.0
2014-Apr-19 19:08 334 0 gusting 7 15.0
2014-Apr-19 18:58 344 1 gusting 6 15.0
2014-Apr-19 18:48 332 1 gusting 6 15.0
2014-Apr-19 18:38 333 2 gusting 11 15.0
2014-Apr-19 18:28 322 4 gusting 7 15.0
2014-Apr-19 18:18 351 0 gusting 7 14.4
2014-Apr-19 18:08 327 2 gusting 7 14.4
2014-Apr-19 17:58 322 3 gusting 7 14.4
2014-Apr-19 17:48 356 1 gusting 6 14.4
2014-Apr-19 17:38 335 0 gusting 4 14.4
2014-Apr-19 17:28 325 0 gusting 5 14.4
2014-Apr-19 17:18 339 14.4
2014-Apr-19 17:08 341 14.4
2014-Apr-19 16:58 006 0 gusting 5 14.4
2014-Apr-19 16:48 009 14.4
2014-Apr-19 16:38 009 15.0
2014-Apr-19 16:28 350 1 gusting 6 14.4
2014-Apr-19 16:18 338 0 gusting 4 14.4
2014-Apr-19 16:08 343 14.4
2014-Apr-19 15:58 345 0 gusting 4 15.0
2014-Apr-19 15:48 15.0
2014-Apr-19 15:38 349 1 gusting 6 15.0
2014-Apr-19 15:28 15.0
2014-Apr-19 15:18 330 1 gusting 8 15.0
2014-Apr-19 15:08 337 1 gusting 6 15.0
2014-Apr-19 14:58 339 4 gusting 6 15.0
2014-Apr-19 14:48 327 15.0
2014-Apr-19 14:38 331 0 gusting 2 15.0
2014-Apr-19 14:28 356 15.0
2014-Apr-19 14:18 349 0 gusting 4 15.0
2014-Apr-19 14:08 349 0 gusting 5 15.0
2014-Apr-19 13:58 329 0 gusting 5 15.6
2014-Apr-19 13:48 324 1 gusting 5 15.6
2014-Apr-19 13:38 314 0 gusting 11 15.6
2014-Apr-19 13:28 349 2 gusting 6 15.0
2014-Apr-19 13:18 034 15.0
2014-Apr-19 13:08 035 15.0
2014-Apr-19 12:58 036 15.0
2014-Apr-19 12:48 034 0 gusting 2 15.0
2014-Apr-19 12:38 035 15.0
2014-Apr-19 12:28 030 15.0
2014-Apr-19 12:18 031 15.6
2014-Apr-19 12:08 028 15.6
2014-Apr-19 11:58 028 15.6
2014-Apr-19 11:48 316 15.0
2014-Apr-19 11:38 320 15.0
2014-Apr-19 11:28 319 15.0
2014-Apr-19 11:18 321 15.0
2014-Apr-19 11:08 318 15.0
2014-Apr-19 10:58 339 15.0
2014-Apr-19 10:48 319 15.6
2014-Apr-19 10:38 319 15.6
2014-Apr-19 10:28 320 15.6
2014-Apr-19 10:18 347 16.1
2014-Apr-19 10:08 303 0 gusting 5 16.1
2014-Apr-19 09:58 304 16.1
2014-Apr-19 09:48 282 16.1
2014-Apr-19 09:38 263 0 gusting 6 16.1
2014-Apr-19 09:28 272 16.1
2014-Apr-19 09:18 306 16.1
2014-Apr-19 09:08 282 16.1
2014-Apr-19 08:58 324 0 gusting 6 16.1
2014-Apr-19 08:48 316 0 gusting 5 16.1
2014-Apr-19 08:38 312 15.6
2014-Apr-19 08:28 301 16.1
2014-Apr-19 08:18 304 16.1
2014-Apr-19 08:08 332 16.1
2014-Apr-19 07:58 306 16.1
2014-Apr-19 07:48 302 16.7
2014-Apr-19 07:38 303 16.7
2014-Apr-19 07:28 290 17.2
2014-Apr-19 07:18 314 17.2
2014-Apr-19 07:08 275 17.2
2014-Apr-19 06:58 313 17.8
2014-Apr-19 06:48 276 0 gusting 6 17.8
2014-Apr-19 06:38 285 0 gusting 6 17.8
2014-Apr-19 06:28 287 2 gusting 6 17.8
2014-Apr-19 06:18 303 1 gusting 6 17.8
2014-Apr-19 06:08 289 1 gusting 6 17.8
2014-Apr-19 05:58 298 0 gusting 6 17.8
2014-Apr-19 05:48 289 1 gusting 7 18.3
2014-Apr-19 05:38 282 1 gusting 11 18.3
2014-Apr-19 05:28 278 4 gusting 11 18.3
2014-Apr-19 05:18 269 5 gusting 11 18.9
2014-Apr-19 05:08 297 3 gusting 15 18.9
2014-Apr-19 04:58 287 6 gusting 13 19.4
2014-Apr-19 04:48 336 6 gusting 13 19.4
2014-Apr-19 04:38 235 7 gusting 13 19.4
2014-Apr-19 04:28 303 4 gusting 11 19.4
2014-Apr-19 04:18 336 4 gusting 11 20.0
2014-Apr-19 04:08 308 2 gusting 11 20.0
2014-Apr-19 03:58 309 3 gusting 12 19.4
2014-Apr-19 03:48 279 8 gusting 22 20.0
2014-Apr-19 03:38 281 6 gusting 12 20.6
2014-Apr-19 03:28 266 5 gusting 15 20.0
2014-Apr-19 03:18 271 5 gusting 10 20.6
2014-Apr-19 03:08 279 4 gusting 14 20.6
2014-Apr-19 02:58 272 7 gusting 14 21.1
2014-Apr-19 02:48 282 2 gusting 8 21.1
2014-Apr-19 02:38 273 5 gusting 12 21.1
2014-Apr-19 02:28 276 4 gusting 12 20.6
2014-Apr-19 02:18 269 5 gusting 14 20.6
2014-Apr-19 02:08 278 7 gusting 15 20.6
2014-Apr-19 01:58 315 3 gusting 11 20.6
2014-Apr-19 01:48 327 4 gusting 10 20.0
2014-Apr-19 01:38 336 5 gusting 12 18.9
2014-Apr-19 01:28 290 6 gusting 12 20.0
2014-Apr-19 01:18 313 4 gusting 11 20.0
2014-Apr-19 01:08 309 2 gusting 7 18.9
2014-Apr-19 00:58 318 4 gusting 14 19.4
2014-Apr-19 00:48 284 5 gusting 11 21.7
2014-Apr-19 00:38 330 6 gusting 10 22.8
2014-Apr-19 00:28 327 5 gusting 8 21.7
2014-Apr-19 00:18 307 5 gusting 10 22.2
2014-Apr-19 00:08 315 1 gusting 11 22.2
2014-Apr-18 23:58 348 5 gusting 7 21.1
2014-Apr-18 23:48 340 4 gusting 13 19.4
2014-Apr-18 23:38 334 4 gusting 11 20.0
2014-Apr-18 23:28 259 4 gusting 11 20.6
2014-Apr-18 23:18 327 7 gusting 13 20.6
2014-Apr-18 23:08 338 7 gusting 12 21.7
2014-Apr-18 22:58 325 4 gusting 11 22.8
2014-Apr-18 22:48 336 6 gusting 13 22.2
2014-Apr-18 22:38 338 6 gusting 12 22.2
2014-Apr-18 22:28 324 5 gusting 12 22.2
2014-Apr-18 22:18 342 4 gusting 12 21.7
2014-Apr-18 22:08 346 6 gusting 11 20.6
2014-Apr-18 21:58 339 6 gusting 13 20.6
2014-Apr-18 21:48 321 6 gusting 13 21.1
2014-Apr-18 21:38 352 6 gusting 10 19.4
2014-Apr-18 21:28 345 5 gusting 10 20.6
2014-Apr-18 21:18 325 5 gusting 7 20.6
2014-Apr-18 21:08 326 2 gusting 10 20.0
2014-Apr-18 20:58 20.0
2014-Apr-18 20:48 338 4 gusting 7 19.4
2014-Apr-18 20:38 343 5 gusting 8 18.9
2014-Apr-18 20:28 332 2 gusting 6 18.3
2014-Apr-18 20:18 351 0 gusting 4 17.8
2014-Apr-18 20:08 17.2
2014-Apr-18 19:58 001 2 gusting 5 17.2
2014-Apr-18 19:48 347 0 gusting 1 17.2
2014-Apr-18 19:38 344 17.2
2014-Apr-18 19:28 346 0 gusting 1 17.2
2014-Apr-18 19:18 339 16.7
2014-Apr-18 19:08 340 16.7
2014-Apr-18 18:58 341 16.7
2014-Apr-18 18:48 339 17.2
2014-Apr-18 18:38 347 0 gusting 6 17.2
2014-Apr-18 18:28 344 1 gusting 5 17.2
2014-Apr-18 18:18 17.2
2014-Apr-18 18:08 333 0 gusting 5 17.2
2014-Apr-18 17:58 337 1 gusting 6 17.2
2014-Apr-18 17:48 328 0 gusting 7 17.2
2014-Apr-18 17:38 347 1 gusting 6 17.2
2014-Apr-18 17:28 355 2 gusting 7 17.2
2014-Apr-18 17:18 326 1 gusting 6 17.2
2014-Apr-18 17:08 337 1 gusting 6 17.2
2014-Apr-18 16:58 357 1 gusting 6 17.2
2014-Apr-18 16:48 003 0 gusting 5 17.2
2014-Apr-18 16:38 355 17.2
2014-Apr-18 16:28 003 0 gusting 5 17.8
2014-Apr-18 16:18 356 1 gusting 6 17.8
2014-Apr-18 16:08 354 1 gusting 6 17.8
2014-Apr-18 15:58 031 1 gusting 12 17.8
2014-Apr-18 15:48 012 2 gusting 7 17.8
2014-Apr-18 15:38 024 3 gusting 7 18.3
2014-Apr-18 15:28 045 0 gusting 5 17.8
2014-Apr-18 15:18 047 0 gusting 4 17.8
2014-Apr-18 15:08 044 17.8
2014-Apr-18 14:58 044 0 gusting 4 17.8
2014-Apr-18 14:48 041 0 gusting 5 17.8
2014-Apr-18 14:38 033 1 gusting 6 18.3
2014-Apr-18 14:28 028 0 gusting 10 18.3
2014-Apr-18 14:18 18.3
2014-Apr-18 14:08 029 4 gusting 10 18.9
2014-Apr-18 13:58 031 1 gusting 8 18.9
2014-Apr-18 13:48 004 4 gusting 8 18.9
2014-Apr-18 13:38 009 3 gusting 7 18.9
2014-Apr-18 13:28 018 3 gusting 8 18.9
2014-Apr-18 13:18 010 3 gusting 10 18.9
2014-Apr-18 13:08 013 1 gusting 10 18.9
2014-Apr-18 12:58 037 5 gusting 10 18.9
2014-Apr-18 12:48 022 4 gusting 10 18.9
2014-Apr-18 12:38 015 2 gusting 7 18.9
2014-Apr-18 12:28 033 1 gusting 7 18.9
2014-Apr-18 12:18 008 2 gusting 10 18.9
2014-Apr-18 12:08 034 4 gusting 11 18.9
2014-Apr-18 11:58 035 2 gusting 6 18.3
2014-Apr-18 11:48 029 0 gusting 5 18.3
2014-Apr-18 11:38 036 0 gusting 4 17.8
2014-Apr-18 11:28 036 17.8
2014-Apr-18 11:18 035 17.8
2014-Apr-18 11:08 036 0 gusting 1 17.2
2014-Apr-18 10:58 034 17.2
2014-Apr-18 10:48 049 0 gusting 4 17.2
2014-Apr-18 10:38 053 0 gusting 4 17.2
2014-Apr-18 10:28 039 0 gusting 5 17.2
2014-Apr-18 10:18 037 0 gusting 4 16.7
2014-Apr-18 10:08 025 16.7
2014-Apr-18 09:58 329 16.7
2014-Apr-18 09:48 331 16.7
2014-Apr-18 09:38 330 17.2
2014-Apr-18 09:28 328 17.2
2014-Apr-18 09:18 326 17.8
2014-Apr-18 09:08 329 17.8
2014-Apr-18 08:58 348 0 gusting 5 18.3
2014-Apr-18 08:48 311 1 gusting 6 18.9
2014-Apr-18 08:38 347 0 gusting 2 18.9
2014-Apr-18 08:28 336 0 gusting 4 18.9
2014-Apr-18 08:18 335 0 gusting 1 18.9
2014-Apr-18 08:08 342 0 gusting 5 19.4
2014-Apr-18 07:58 343 1 gusting 8 19.4
2014-Apr-18 07:48 008 2 gusting 7 19.4
2014-Apr-18 07:38 19.4
2014-Apr-18 07:28 047 6 gusting 10 19.4
2014-Apr-18 07:18 007 1 gusting 10 19.4
2014-Apr-18 07:08 007 4 gusting 10 19.4
2014-Apr-18 06:58 029 5 gusting 8 19.4
2014-Apr-18 06:48 031 4 gusting 10 19.4
2014-Apr-18 06:38 034 4 gusting 12 20.0
2014-Apr-18 06:28 010 2 gusting 8 20.0
2014-Apr-18 06:18 031 2 gusting 10 20.0
2014-Apr-18 06:08 062 5 gusting 10 20.0
2014-Apr-18 05:58 031 5 gusting 11 20.0
2014-Apr-18 05:48 047 5 gusting 10 20.0
2014-Apr-18 05:38 029 3 gusting 13 20.0
2014-Apr-18 05:28 021 5 gusting 13 20.0
2014-Apr-18 05:18 032 5 gusting 12 20.6
2014-Apr-18 05:08 014 4 gusting 13 20.6
2014-Apr-18 04:58 006 6 gusting 12 20.6
2014-Apr-18 04:48 056 6 gusting 13 20.6
2014-Apr-18 04:38 022 7 gusting 14 20.6
2014-Apr-18 04:28 032 3 gusting 12 20.6
2014-Apr-18 04:18 030 6 gusting 14 20.6
2014-Apr-18 04:08 022 8 gusting 18 20.6
2014-Apr-18 03:58 019 5 gusting 12 20.6
2014-Apr-18 03:48 036 5 gusting 14 20.6
2014-Apr-18 03:38 050 5 gusting 14 20.6
2014-Apr-18 03:28 049 5 gusting 14 21.1
2014-Apr-18 03:18 037 10 gusting 15 21.1
2014-Apr-18 03:08 346 7 gusting 18 22.2
2014-Apr-18 02:58 034 6 gusting 15 22.2
2014-Apr-18 02:48 014 11 gusting 20 22.2
2014-Apr-18 02:38 023 6 gusting 19 22.2
2014-Apr-18 02:28 340 10 gusting 18 22.2
2014-Apr-18 02:18 041 8 gusting 14 21.7
2014-Apr-18 02:08 040 8 gusting 18 22.2
2014-Apr-18 01:58 038 9 gusting 14 22.2
2014-Apr-18 01:48 024 9 gusting 15 22.2
2014-Apr-18 01:38 023 7 gusting 14 22.2
2014-Apr-18 01:28 029 10 gusting 15 21.7
2014-Apr-18 01:18 027 6 gusting 15 23.3
2014-Apr-18 01:08 031 8 gusting 15 22.2
2014-Apr-18 00:58 055 6 gusting 13 23.3
2014-Apr-18 00:48 009 8 gusting 18 23.3
2014-Apr-18 00:38 038 6 gusting 12 23.3
2014-Apr-18 00:28 027 6 gusting 14 22.8
2014-Apr-18 00:18 051 6 gusting 13 22.8
2014-Apr-18 00:08 030 8 gusting 14 23.3